Volver al catálogo

SL-12 R/B(2)

ActivoGEO
NORAD 17065·ROCKET BODY·🇷🇺 Russia

Lanzado Oct 25, 1986 desde Baikonur Cosmodrome

Loading…

TLE

ActualizadoSource: Space-Track

Época: Sep 14, 2026, 05:39 UTC

1 17065U 86082F   26257.23575238 -.00000060  00000-0  00000-0 0  9997
2 17065  11.4864 325.7608 0026558 174.3986 213.1751  0.97597686116555

Sigue SL-12 R/B(2) en tiempo real con AllMySat

Download on the App Store